{"data":{"norad_id":67321,"epoch":"2026-05-24T17:14:51.485280Z","epoch_age_seconds":113416,"freshness":"FRESH","line1":"1 67321U 26002S   26144.71865145  .00014331  00000+0  52911-3 0  9995","line2":"2 67321  43.0005 256.1509 0001736 272.8494  87.2159 15.27589974 22704","mean_motion":15.27589974,"eccentricity":0.0001736,"inclination_deg":43.0005,"raan_deg":256.1509,"arg_perigee_deg":272.8494,"mean_anomaly_deg":87.2159,"bstar":0.00052911,"rev_number":2270,"period_min":94.266133223522,"perigee_km":481.82813373642,"apogee_km":484.21032717963,"semimajor_km":6861.156230458,"source":"CELESTRAK","updated_at":"2026-05-25T13:38:21.518151Z"}}